This demonstration page uses our WeatherBlox Daily Observations layout. Learn more.

39.08367, -84.50855

Hourly Observations for January 14, 2019

Temp ( °F °C ) Dew Point ( °F °C ) Humidity (%) Winds ( mph kmh ) Pressure ( in mb ) Visibility ( mi km ) Precip ( " mm )
12:53 am 00:53 Cloudy 32 0 26 -3.3 79 79 N 7 11 30.3 1026 10 16.09344 0 0
1:25 am 01:25 Cloudy 31 -0.6 27 -2.8 85 85 NNW 6 9 30.33 1027 10 16.09344 0 0
1:53 am 01:53 Cloudy 31 -0.6 26 -3.3 82 82 N 5 7 30.3 1026 10 16.09344 0 0
2:53 am 02:53 Cloudy 31 -0.6 27 -2.8 85 85 NNW 7 11 30.33 1027 8 12.874752 0 0
3:53 am 03:53 Cloudy with Mist and Fog 30 -1.1 27 -2.8 88 88 NW 7 11 30.33 1027 5 8.04672 0 0
4:53 am 04:53 Cloudy with Mist and Fog 30 -1.1 27 -2.8 88 88 NNW 6 9 30.33 1027 5 8.04672 0 0
5:13 am 05:13 Cloudy with Mist and Fog 30 -1.1 27 -2.8 88 88 NW 5 7 30.36 1028 5 8.04672 0 0
5:53 am 05:53 Cloudy with Mist and Fog 30 -1.1 27 -2.8 88 88 NNW 6 9 30.33 1027 6 9.656064 0 0
6:53 am 06:53 Cloudy 30 -1.1 26 -3.3 85 85 NNW 8 13 30.36 1028 7 11.265408 0 0
7:53 am 07:53 Cloudy with Mist and Fog 29 -1.7 26 -3.3 89 89 VRB 3 6 30.36 1028 6 9.656064 0 0
8:53 am 08:53 Cloudy with Mist and Fog 29 -1.7 26 -3.3 89 89 NNW 9 15 30.36 1028 6 9.656064 0 0
9:07 am 09:07 Cloudy 29 -1.7 25 -3.9 85 85 NNW 9 15 30.39 1029 7 11.265408 0 0
9:31 am 09:31 Cloudy with Mist and Fog 29 -1.7 25 -3.9 85 85 NNW 7 11 30.42 1030 6 9.656064 0 0
9:53 am 09:53 Cloudy 29 -1.7 25 -3.9 85 85 NNW 7 11 30.39 1029 7 11.265408 0 0
10:53 am 10:53 Cloudy 29 -1.7 24 -4.4 82 82 NNW 6 9 30.39 1029 9 14.484096 0 0
11:53 am 11:53 Cloudy 30 -1.1 24 -4.4 79 79 NNW 6 9 30.39 1029 10 16.09344 0 0
12:01 pm 12:01 Cloudy 30 -1.1 24 -4.4 79 79 NNW 7 11 30.42 1030 10 16.09344 0 0
12:29 pm 12:29 Cloudy 29 -1.7 24 -4.4 82 82 NW 6 9 30.39 1029 9 14.484096 0 0
12:53 pm 12:53 Cloudy 29 -1.7 23 -5 78 78 NNW 7 11 30.36 1028 9 14.484096 0 0
1:32 pm 13:32 Cloudy 29 -1.7 23 -5 78 78 NW 3 6 30.39 1029 10 16.09344 0 0
1:53 pm 13:53 Cloudy 29 -1.7 23 -5 78 78 Calm 30.36 1028 9 14.484096 0 0
2:12 pm 14:12 Cloudy 29 -1.7 23 -5 78 78 W 5 7 30.36 1028 9 14.484096 0 0
2:53 pm 14:53 Cloudy 29 -1.7 22 -5.6 75 75 Calm 30.33 1027 10 16.09344 0 0
3:53 pm 15:53 Cloudy 30 -1.1 21 -6.1 69 69 Calm 30.33 1027 9 14.484096 0 0
4:53 pm 16:53 Mostly Cloudy 30 -1.1 20 -6.7 66 66 Calm 30.33 1027 10 16.09344 0 0
5:53 pm 17:53 Mostly Cloudy 29 -1.7 20 -6.7 69 69 Calm 30.33 1027 10 16.09344 0 0
6:53 pm 18:53 Clear 26 -3.3 22 -5.6 84 84 Calm 30.33 1027 7 11.265408 0 0
7:53 pm 19:53 Partly Cloudy with Mist and Fog 23 -5 20 -6.7 88 88 Calm 30.33 1027 5 8.04672 0 0
8:53 pm 20:53 Partly Cloudy with Mist and Fog 21 -6.1 19 -7.2 92 92 Calm 30.33 1027 3 4.828032 0 0
9:53 pm 21:53 Mostly Clear with Mist and Fog 21 -6.1 18 -7.8 88 88 Calm 30.33 1027 3 4.828032 0 0
10:53 pm 22:53 Clear with Mist and Fog 20 -6.7 18 -7.8 92 92 Calm 30.36 1028 3 4.828032 0 0
11:12 pm 23:12 Clear with Mist and Fog 18 -7.8 15 -9.4 88 88 Calm 30.36 1028 2.5 4.02336 0 0
11:20 pm 23:20 Clear with Mist and Fog 18 -7.8 16 -8.9 92 92 Calm 30.36 1028 3 4.828032 0 0
11:41 pm 23:41 Clear with Mist and Fog 18 -7.8 16 -8.9 92 92 Calm 30.39 1029 2 3.218688 0 0
11:53 pm 23:53 Clear with Mist and Fog 18 -7.8 16 -8.9 92 92 Calm 30.36 1028 2.5 4.02336 0 0

Powered by AerisWeather